Location: Knowlton
(51.2333°N, 1.2667°E)
Time: 11:49:57
(UTC+00:00)

ISS - Visible Passes

Search period start: 28 September 2021 00:00
Search period end: 08 October 2021 00:00
Orbit: 417 x 422 km, 51.6° (Epoch: 28 September)

Date Brightness Start Highest point End Pass type
(mag) Time Alt. Az. Time Alt. Az. Time Alt. Az.
28 Sep -3.8 19:04:22 10° W 19:07:45 83° S 19:09:09 33° ESE visible
28 Sep -0.8 20:41:21 10° W 20:42:06 15° W 20:42:06 15° W visible
29 Sep -3.7 18:16:56 10° W 18:20:19 87° N 18:23:32 11° E visible
29 Sep -2.5 19:53:49 10° W 19:56:29 36° SW 19:56:29 36° SW visible
30 Sep -3.3 19:06:17 10° W 19:09:35 52° SSW 19:10:50 32° SE visible
01 Oct -3.5 18:18:43 10° W 18:22:04 68° SSW 18:25:10 12° ESE visible
01 Oct -1.6 19:55:54 10° W 19:58:08 20° SW 19:58:08 20° SW visible
02 Oct -2.2 19:08:03 10° W 19:10:59 28° SSW 19:12:27 20° S visible
03 Oct -2.6 18:20:14 10° W 18:23:24 39° SSW 18:26:34 10° SE visible
04 Oct -1.0 19:10:05 10° WSW 19:11:57 14° SW 19:13:49 10° S visible
05 Oct -1.4 18:21:44 10° W 18:24:19 20° SW 18:26:52 10° SSE visible
